Location: Melizzano
(41.1500°N, 14.5000°E)
Time: 22:20:23
(UTC+00:00)

CARTOSAT-1 - Pass Details

Date: 11 May 2021
Orbit: 617 x 618 km, 97.8° (Epoch: 23 June)

Event Time Altitude Azimuth Distance (km) Brightness Sun altitude
Exits shadow 20:56:41 43° 240° (WSW) 865 4.2 -24.4°
Maximum altitude 20:57:10 46° 261° (W) 839 4.3 -24.4°
Drops below altitude 10° 21:01:20 10° 335° (NNW) 1,989 7.2 -24.8°
Sets 21:03:36 0° 342° (NNW) 2,900 8.3 -25.0°
